Content
SEND FEEDBACK

United States of America Flag

HAWLEY, PENNSYLVANIA


Home > North America > United States > Pennsylvania
Elevation: 1175 feet     Latitude: 41 29N     Longitude: 075 10W

WEATHER
 
SELECT A DAY
Number of Records: 486,128;   Date Range: 1/1/95 - 3/22/16
 
SHARE

PRINT THIS DATA

[ ← Previous Day ]
WEATHER ALMANAC - FEBRUARY 2, 2013
[ Next Day → ]
[ °C ]   °F
Weather ElementAverageHighLow
Temperature15.5 °F23 °F (12:55 pm)8.6 °F (7:15 am)
Dewpoint6.1 °F10.4 °F (4:55 pm)-0.4 °F (1:15 pm)
Humidity67.7 %92 % (11:55 pm)39 % (12:55 pm)
Barometer30.05 in30.16 in (8:15 am)29.95 in (11:35 pm)
Wind Speed5.5 mph13.8 mph (12:55 pm)
Wind Gust20.7 mph (12:55 pm)
Weather ElementAverage
Visibility7.7 mi
Wind DirectionS (181.3 °)

Weather ElementTotal
Precipitation---
Heating Degree Days49.2 (Base 65)
Averaged from 69 records on February 2, 2013
WEATHER CONDITIONS BREAKOUT
WIND DIRECTION BREAKOUT
WEATHER BY HOUR - FEBRUARY 2, 2013
[ °C ]   °F
Local TimeTemperatureDewpointHumidityBarometerVisibilityWind DirectionWind SpeedGust SpeedPrecipitationEventsConditions
12:35 AM14.0 °F6.8 °F73 %30.10 in10.0 miWest (270°)6.9 mphClear
12:55 AM14.0 °F6.8 °F73 %30.11 in10.0 miWest (270°)5.8 mphClear
1:15 AM14.0 °F6.8 °F73 %30.11 in10.0 miWest (270°)6.9 mphClear
1:35 AM14.0 °F6.8 °F73 %30.12 in10.0 miWest (270°)6.9 mphClear
1:55 AM14.0 °F5.0 °F67 %30.12 in10.0 miWest (260°)4.6 mphMostly Cloudy
2:15 AM14.0 °F8.6 °F79 %30.12 in9.0 miWest (260°)8.1 mphMostly Cloudy
2:35 AM14.0 °F8.6 °F79 %30.13 in9.0 miWest (260°)9.2 mphOvercast
2:55 AM14.0 °F6.8 °F73 %30.13 in10.0 miWest (270°)5.8 mphScattered Clouds
3:15 AM12.2 °F6.8 °F79 %30.13 in10.0 miWest (270°)4.6 mphMostly Cloudy
3:35 AM12.2 °F6.8 °F79 %30.13 in10.0 miWest (260°)6.9 mphMostly Cloudy
3:55 AM12.2 °F5.0 °F73 %30.13 in10.0 miWest (270°)8.1 mphPartly Cloudy
4:15 AM12.2 °F3.2 °F67 %30.13 in10.0 miWest (260°)4.6 mphClear
4:35 AM12.2 °F3.2 °F67 %30.13 in10.0 miWest (270°)6.9 mphClear
4:55 AM10.4 °F3.2 °F73 %30.14 in10.0 miWest (260°)6.9 mphClear
5:15 AM10.4 °F3.2 °F73 %30.13 in10.0 miWSW (250°)3.5 mphClear
5:35 AM10.4 °F1.4 °F67 %30.14 in10.0 miWest (270°)5.8 mphClear
5:55 AM10.4 °F3.2 °F73 %30.14 in10.0 miWest (280°)6.9 mphClear
6:15 AM10.4 °F1.4 °F67 %30.14 in10.0 miWest (270°)8.1 mphClear
6:35 AM10.4 °F1.4 °F67 %30.14 in10.0 miWest (280°)5.8 mphClear
7:15 AM8.6 °F1.4 °F73 %30.15 in10.0 miCalmClear
7:35 AM8.6 °F1.4 °F73 %30.15 in10.0 miCalmClear
7:55 AM10.4 °F3.2 °F73 %30.15 in10.0 miCalmClear
8:15 AM10.4 °F3.2 °F73 %30.16 in10.0 miCalmClear
8:35 AM12.2 °F3.2 °F67 %30.16 in10.0 miWest (260°)6.9 mphClear
8:55 AM12.2 °F3.2 °F67 %30.15 in10.0 miWest (260°)5.8 mphClear
9:35 AM15.8 °F5.0 °F62 %30.13 in10.0 miCalmClear
9:55 AM15.8 °F3.2 °F58 %30.12 in10.0 miSSW (200°)3.5 mphClear
10:15 AM17.6 °F5.0 °F58 %30.12 in10.0 miSouth (180°)3.5 mphClear
10:35 AM19.4 °F5.0 °F54 %30.11 in10.0 miSouth (190°)9.2 mphClear
10:55 AM19.4 °F5.0 °F54 %30.09 in10.0 miSouth (190°)8.1 mphClear
11:15 AM19.4 °F3.2 °F49 %30.08 in10.0 miSouth (190°)11.5 mph16.1 mphClear
11:35 AM19.4 °F3.2 °F49 %30.07 in10.0 miSSW (200°)8.1 mphClear
11:55 AM21.2 °F5.0 °F50 %30.07 in10.0 miSouth (190°)5.8 mphPartly Cloudy
12:15 PM21.2 °F3.2 °F46 %30.05 in10.0 miSW (220°)8.1 mph17.3 mphMostly Cloudy
12:35 PM21.2 °F3.2 °F46 %30.03 in10.0 miWest (260°)11.5 mphMostly Cloudy
12:55 PM23.0 °F1.4 °F39 %30.04 in10.0 miSW (230°)13.8 mph20.7 mphMostly Cloudy
1:15 PM21.2 °F-0.4 °F39 %30.03 in10.0 miWSW (250°)12.7 mph18.4 mphOvercast
1:35 PM19.4 °F1.4 °F46 %30.02 in10.0 miSW (230°)11.5 mph18.4 mphOvercast
1:55 PM21.2 °F3.2 °F46 %30.01 in10.0 miWSW (240°)9.2 mph20.7 mphMostly Cloudy
2:15 PM21.2 °F1.4 °F42 %30.00 in10.0 miWSW (240°)9.2 mphMostly Cloudy
2:35 PM19.4 °F1.4 °F46 %30.00 in10.0 miSW (230°)9.2 mphOvercast
2:55 PM19.4 °F3.2 °F49 %29.99 in10.0 miWSW (240°)9.2 mphOvercast
3:15 PM19.4 °F3.2 °F49 %29.99 in10.0 miSW (220°)5.8 mphOvercast
3:35 PM19.4 °F3.2 °F49 %29.98 in10.0 miSW (220°)6.9 mph16.1 mphOvercast
3:55 PM19.4 °F6.8 °F58 %29.99 in8.0 miSW (220°)11.5 mph16.1 mphOvercast
4:15 PM17.6 °F6.8 °F63 %29.99 in10.0 miWest (260°)8.1 mphOvercast
4:35 PM17.6 °F8.6 °F68 %29.99 in3.0 miWSW (250°)5.8 mphOvercast
4:55 PM15.8 °F10.4 °F79 %29.99 in1.8 miSW (230°)9.2 mphOvercast
5:15 PM15.8 °F10.4 °F79 %29.99 in2.0 miSW (230°)8.1 mphOvercast
5:35 PM15.8 °F10.4 °F79 %29.98 in2.5 miSW (220°)8.1 mphOvercast
5:55 PM15.8 °F10.4 °F79 %29.98 in2.0 miSSW (200°)4.6 mphOvercast
6:15 PM15.8 °F10.4 °F79 %29.98 in8.0 miSSW (210°)4.6 mphOvercast
6:35 PM15.8 °F10.4 °F79 %29.98 in10.0 miSW (220°)5.8 mphMostly Cloudy
6:55 PM15.8 °F10.4 °F79 %29.98 in2.5 miSSW (200°)4.6 mphOvercast
7:15 PM15.8 °F10.4 °F79 %29.99 in3.0 miSSW (210°)4.6 mphOvercast
7:35 PM15.8 °F10.4 °F79 %29.99 in1.8 miCalmOvercast
7:55 PM15.8 °F10.4 °F79 %29.99 in1.5 miSSW (200°)4.6 mphOvercast
8:15 PM15.8 °F10.4 °F79 %29.99 in2.5 miSSW (200°)3.5 mphOvercast
8:35 PM15.8 °F10.4 °F79 %29.99 in2.5 miCalmOvercast
8:55 PM15.8 °F10.4 °F79 %29.99 in3.0 miCalmOvercast
9:15 PM15.8 °F10.4 °F79 %29.98 in3.0 miCalmOvercast
9:35 PM15.8 °F10.4 °F79 %29.98 in2.0 miCalmOvercast
9:55 PM15.8 °F10.4 °F79 %29.97 in1.8 miCalmOvercast
10:15 PM15.8 °F10.4 °F79 %29.97 in2.0 miCalmOvercast
10:35 PM15.8 °F10.4 °F79 %29.97 in1.8 miCalmOvercast
10:55 PM15.8 °F10.4 °F79 %29.96 in2.0 miCalmOvercast
11:15 PM15.8 °F10.4 °F79 %29.96 in4.0 miCalmOvercast
11:35 PM14.0 °F8.6 °F79 %29.95 in5.0 miCalmOvercast
11:55 PM12.2 °F10.4 °F92 %29.95 in5.0 miSSE (150°)3.5 mphOvercast
Hourly data recorded from KMSV, located miles away from Hawley, Pennsylvania




STORIES FROM OUR PARTNERS